Location: Chittendens Corners
(41.2320°N, 81.4940°W)
Time: 08:09:58
(UTC+00:00)

CZ-4 R/B - Pass Details

Date: 29 October 2020
Orbit: 532 x 598 km, 97.7° (Epoch: 28 November)

Event Time Altitude Azimuth Distance (km) Brightness Sun altitude
Rises 23:45:49 0° 158° (SSE) 2,699 4.7 -15.8°
Reaches altitude 10° 23:47:58 10° 155° (SSE) 1,802 3.7 -16.2°
Maximum altitude 23:51:47 61° 75° (ENE) 616 1.2 -16.9°
Drops below altitude 10° 23:55:36 10° 355° (N) 1,795 4.0 -17.7°
Sets 23:57:44 0° 352° (N) 2,687 4.9 -18.1°
